Time,TemperatureF,DewpointF,PressureIn,WindDirection,WindDirectionDegrees,WindSpeedMPH,WindSpeedGustMPH,Humidity,HourlyPrecipIn,Conditions,Clouds,dailyrainin,SoftwareType,DateUTC
2013-09-16 00:02:00,55.5,52.2,30.03,North,-999,-999.0,-999.0,89,0.00,,,0.00,WSDL version 420,2013-09-16 04:02:00,
2013-09-16 00:03:00,55.5,52.2,30.03,North,-999,-999.0,-999.0,89,0.00,,,0.00,WSDL version 420,2013-09-16 04:03:00,
2013-09-16 00:05:00,55.4,52.2,30.03,North,-999,-999.0,-999.0,89,0.00,,,0.00,WSDL version 420,2013-09-16 04:05:00,
2013-09-16 00:09:00,55.7,52.5,30.03,North,-999,-999.0,-999.0,89,0.00,,,0.00,WSDL version 420,2013-09-16 04:09:00,
2013-09-16 00:15:00,55.8,52.5,30.03,North,-999,-999.0,-999.0,89,0.00,,,0.00,WSDL version 420,2013-09-16 04:15:00,
2013-09-16 00:18:00,55.6,52.4,30.03,North,-999,-999.0,-999.0,89,0.00,,,0.00,WSDL version 420,2013-09-16 04:18:00,
2013-09-16 00:24:00,55.6,52.6,30.03,North,-999,-999.0,-999.0,90,0.00,,,0.00,WSDL version 420,2013-09-16 04:24:00,
2013-09-16 00:26:00,55.5,52.6,30.03,North,-999,-999.0,-999.0,90,0.00,,,0.00,WSDL version 420,2013-09-16 04:26:00,
2013-09-16 00:32:00,55.6,52.7,30.03,North,-999,-999.0,-999.0,90,0.00,,,0.00,WSDL version 420,2013-09-16 04:32:00,
2013-09-16 00:38:00,55.8,52.9,30.03,North,-999,-999.0,-999.0,90,0.00,,,0.00,WSDL version 420,2013-09-16 04:38:00,
2013-09-16 00:44:00,55.7,52.8,30.03,North,-999,-999.0,-999.0,90,0.00,,,0.00,WSDL version 420,2013-09-16 04:44:00,
2013-09-16 00:50:00,55.4,52.7,30.03,North,-999,-999.0,-999.0,91,0.00,,,0.00,WSDL version 420,2013-09-16 04:50:00,
2013-09-16 00:56:00,55.6,52.7,30.03,North,-999,-999.0,-999.0,90,0.00,,,0.00,WSDL version 420,2013-09-16 04:56:00,
2013-09-16 01:02:00,55.4,52.5,30.03,North,-999,-999.0,-999.0,90,0.00,,,0.00,WSDL version 420,2013-09-16 05:02:00,
2013-09-16 01:08:00,55.5,52.6,30.03,North,-999,-999.0,-999.0,90,0.00,,,0.00,WSDL version 420,2013-09-16 05:08:00,
2013-09-16 01:14:00,55.3,52.4,30.03,North,-999,-999.0,-999.0,90,0.00,,,0.00,WSDL version 420,2013-09-16 05:14:00,
2013-09-16 01:20:00,55.5,52.6,30.03,North,-999,-999.0,-999.0,90,0.00,,,0.00,WSDL version 420,2013-09-16 05:20:00,
2013-09-16 01:26:00,55.2,52.3,30.03,North,-999,-999.0,-999.0,90,0.00,,,0.00,WSDL version 420,2013-09-16 05:26:00,
2013-09-16 01:32:00,55.3,52.4,30.03,North,-999,-999.0,-999.0,90,0.00,,,0.00,WSDL version 420,2013-09-16 05:32:00,
2013-09-16 01:38:00,55.4,52.5,30.03,North,-999,-999.0,-999.0,90,0.00,,,0.00,WSDL version 420,2013-09-16 05:38:00,
2013-09-16 01:44:00,55.1,52.4,30.03,North,-999,-999.0,-999.0,91,0.00,,,0.00,WSDL version 420,2013-09-16 05:44:00,
2013-09-16 01:50:00,54.7,52.2,30.03,North,-999,-999.0,-999.0,91,0.00,,,0.00,WSDL version 420,2013-09-16 05:50:00,
2013-09-16 01:56:00,54.8,52.3,30.03,North,-999,-999.0,-999.0,91,0.00,,,0.00,WSDL version 420,2013-09-16 05:56:00,
2013-09-16 02:02:00,55.1,52.6,30.03,North,-999,-999.0,-999.0,91,0.00,,,0.00,WSDL version 420,2013-09-16 06:02:00,
2013-09-16 02:08:00,55.0,52.3,30.03,North,-999,-999.0,-999.0,90,0.00,,,0.00,WSDL version 420,2013-09-16 06:08:00,
2013-09-16 02:15:00,55.0,52.1,30.03,North,-999,-999.0,-999.0,90,0.00,,,0.00,WSDL version 420,2013-09-16 06:15:00,
2013-09-16 02:21:00,54.7,51.9,30.03,North,-999,-999.0,-999.0,90,0.00,,,0.00,WSDL version 420,2013-09-16 06:21:00,
2013-09-16 02:27:00,54.6,51.7,30.03,North,-999,-999.0,-999.0,90,0.00,,,0.00,WSDL version 420,2013-09-16 06:27:00,
2013-09-16 02:33:00,54.6,51.7,30.03,North,-999,-999.0,-999.0,90,0.00,,,0.00,WSDL version 420,2013-09-16 06:33:00,
2013-09-16 02:39:00,54.4,51.7,30.03,North,-999,-999.0,-999.0,91,0.00,,,0.00,WSDL version 420,2013-09-16 06:39:00,
2013-09-16 02:45:00,54.4,51.9,30.00,North,-999,-999.0,-999.0,91,0.00,,,0.00,WSDL version 420,2013-09-16 06:45:00,
2013-09-16 02:51:00,54.3,51.9,30.00,North,-999,-999.0,-999.0,92,0.00,,,0.00,WSDL version 420,2013-09-16 06:51:00,
2013-09-16 02:57:00,54.6,52.1,30.00,North,-999,-999.0,-999.0,91,0.00,,,0.00,WSDL version 420,2013-09-16 06:57:00,
2013-09-16 03:03:00,54.6,52.2,30.00,North,-999,-999.0,-999.0,91,0.00,,,0.00,WSDL version 420,2013-09-16 07:03:00,
2013-09-16 03:08:00,54.7,52.1,30.00,North,-999,-999.0,-999.0,91,0.00,,,0.00,WSDL version 420,2013-09-16 07:08:00,
2013-09-16 03:14:00,54.9,52.3,30.00,North,-999,-999.0,-999.0,91,0.00,,,0.00,WSDL version 420,2013-09-16 07:14:00,
2013-09-16 03:20:00,55.0,52.4,30.00,North,-999,-999.0,-999.0,91,0.00,,,0.00,WSDL version 420,2013-09-16 07:20:00,
2013-09-16 03:26:00,55.0,52.7,30.00,North,-999,-999.0,-999.0,92,0.00,,,0.00,WSDL version 420,2013-09-16 07:26:00,
2013-09-16 03:32:00,55.2,52.8,30.00,North,-999,-999.0,-999.0,91,0.00,,,0.00,WSDL version 420,2013-09-16 07:32:00,
2013-09-16 03:38:00,55.4,52.9,30.00,North,-999,-999.0,-999.0,91,0.00,,,0.00,WSDL version 420,2013-09-16 07:38:00,
2013-09-16 03:44:00,55.4,52.9,30.00,North,-999,-999.0,-999.0,91,0.00,,,0.00,WSDL version 420,2013-09-16 07:44:00,
2013-09-16 03:50:00,55.4,52.9,30.00,North,-999,-999.0,-999.0,91,0.00,,,0.00,WSDL version 420,2013-09-16 07:50:00,
2013-09-16 03:56:00,55.6,53.0,30.00,North,-999,-999.0,-999.0,91,0.00,,,0.00,WSDL version 420,2013-09-16 07:56:00,
2013-09-16 04:02:00,55.7,53.1,30.00,North,-999,-999.0,-999.0,91,0.00,,,0.00,WSDL version 420,2013-09-16 08:02:00,
2013-09-16 04:08:00,55.7,53.1,30.00,North,-999,-999.0,-999.0,91,0.00,,,0.00,WSDL version 420,2013-09-16 08:08:00,
2013-09-16 04:14:00,55.8,53.3,30.00,North,-999,-999.0,-999.0,91,0.00,,,0.00,WSDL version 420,2013-09-16 08:14:00,
2013-09-16 04:20:00,55.9,53.5,30.00,North,-999,-999.0,-999.0,92,0.00,,,0.00,WSDL version 420,2013-09-16 08:20:00,
2013-09-16 04:26:00,56.0,53.8,30.00,North,-999,-999.0,-999.0,92,0.00,,,0.00,WSDL version 420,2013-09-16 08:26:00,
2013-09-16 04:32:00,56.2,54.0,30.00,North,-999,-999.0,-999.0,92,0.00,,,0.00,WSDL version 420,2013-09-16 08:32:00,
2013-09-16 04:38:00,56.1,53.9,30.00,North,-999,-999.0,-999.0,92,0.00,,,0.00,WSDL version 420,2013-09-16 08:38:00,
2013-09-16 04:44:00,56.1,53.9,30.00,North,-999,-999.0,-999.0,92,0.00,,,0.00,WSDL version 420,2013-09-16 08:44:00,
2013-09-16 04:50:00,56.1,53.9,30.00,North,-999,-999.0,-999.0,92,0.00,,,0.00,WSDL version 420,2013-09-16 08:50:00,
2013-09-16 04:56:00,56.1,53.9,30.00,North,-999,-999.0,-999.0,92,0.00,,,0.00,WSDL version 420,2013-09-16 08:56:00,
2013-09-16 05:02:00,56.4,54.1,29.97,North,-999,-999.0,-999.0,92,0.00,,,0.00,WSDL version 420,2013-09-16 09:02:00,
2013-09-16 05:08:00,56.4,54.2,29.97,North,-999,-999.0,-999.0,93,0.00,,,0.00,WSDL version 420,2013-09-16 09:08:00,
2013-09-16 05:15:00,56.4,54.5,29.97,North,-999,-999.0,-999.0,93,0.00,,,0.00,WSDL version 420,2013-09-16 09:15:00,
2013-09-16 05:21:00,56.5,54.3,30.00,North,-999,-999.0,-999.0,92,0.00,,,0.00,WSDL version 420,2013-09-16 09:21:00,
2013-09-16 05:27:00,56.4,54.2,30.00,North,-999,-999.0,-999.0,92,0.00,,,0.00,WSDL version 420,2013-09-16 09:27:00,
2013-09-16 05:33:00,56.2,54.3,29.97,North,-999,-999.0,-999.0,93,0.00,,,0.00,WSDL version 420,2013-09-16 09:33:00,
2013-09-16 05:39:00,56.4,54.5,29.97,North,-999,-999.0,-999.0,93,0.00,,,0.00,WSDL version 420,2013-09-16 09:39:00,
2013-09-16 05:45:00,56.5,54.6,29.97,North,-999,-999.0,-999.0,93,0.00,,,0.00,WSDL version 420,2013-09-16 09:45:00,
2013-09-16 05:51:00,56.6,54.7,29.97,North,-999,-999.0,-999.0,93,0.00,,,0.00,WSDL version 420,2013-09-16 09:51:00,
2013-09-16 05:57:00,56.7,54.5,29.97,North,-999,-999.0,-999.0,92,0.00,,,0.00,WSDL version 420,2013-09-16 09:57:00,
2013-09-16 06:03:00,56.7,54.4,30.00,North,-999,-999.0,-999.0,92,0.00,,,0.00,WSDL version 420,2013-09-16 10:03:00,
2013-09-16 06:09:00,56.6,54.4,30.00,North,-999,-999.0,-999.0,92,0.00,,,0.00,WSDL version 420,2013-09-16 10:09:00,
2013-09-16 06:15:00,56.7,54.4,30.00,North,-999,-999.0,-999.0,92,0.00,,,0.00,WSDL version 420,2013-09-16 10:15:00,
2013-09-16 06:21:00,56.7,54.4,30.00,North,-999,-999.0,-999.0,92,0.00,,,0.00,WSDL version 420,2013-09-16 10:21:00,
2013-09-16 06:27:00,56.5,54.5,30.00,North,-999,-999.0,-999.0,93,0.00,,,0.00,WSDL version 420,2013-09-16 10:27:00,
2013-09-16 06:33:00,56.7,54.8,30.00,North,-999,-999.0,-999.0,93,0.00,,,0.00,WSDL version 420,2013-09-16 10:33:00,
2013-09-16 06:39:00,56.7,54.8,30.00,North,-999,-999.0,-999.0,93,0.00,,,0.00,WSDL version 420,2013-09-16 10:39:00,
2013-09-16 06:45:00,56.5,54.6,30.00,North,-999,-999.0,-999.0,93,0.00,,,0.00,WSDL version 420,2013-09-16 10:45:00,
2013-09-16 06:51:00,56.6,54.7,30.00,North,-999,-999.0,-999.0,93,0.00,,,0.00,WSDL version 420,2013-09-16 10:51:00,
2013-09-16 06:57:00,56.4,54.5,30.00,North,-999,-999.0,-999.0,93,0.00,,,0.00,WSDL version 420,2013-09-16 10:57:00,
2013-09-16 07:03:00,56.5,54.6,30.00,North,-999,-999.0,-999.0,93,0.00,,,0.00,WSDL version 420,2013-09-16 11:03:00,
2013-09-16 07:09:00,56.4,54.5,30.00,North,-999,-999.0,-999.0,93,0.00,,,0.00,WSDL version 420,2013-09-16 11:09:00,
2013-09-16 07:15:00,56.5,54.6,30.03,North,-999,-999.0,-999.0,93,0.00,,,0.00,WSDL version 420,2013-09-16 11:15:00,
2013-09-16 07:21:00,56.7,55.0,30.03,North,-999,-999.0,-999.0,93,0.00,,,0.00,WSDL version 420,2013-09-16 11:21:00,
2013-09-16 07:27:00,56.7,55.0,30.03,North,-999,-999.0,-999.0,94,0.00,,,0.00,WSDL version 420,2013-09-16 11:27:00,
2013-09-16 07:33:00,57.0,55.3,30.03,North,-999,-999.0,-999.0,93,0.00,,,0.00,WSDL version 420,2013-09-16 11:33:00,
2013-09-16 07:39:00,56.8,54.8,30.03,North,-999,-999.0,-999.0,93,0.00,,,0.00,WSDL version 420,2013-09-16 11:39:00,
2013-09-16 07:45:00,56.5,54.6,30.03,North,-999,-999.0,-999.0,93,0.00,,,0.00,WSDL version 420,2013-09-16 11:45:00,
2013-09-16 07:51:00,56.6,54.8,30.03,North,-999,-999.0,-999.0,93,0.00,,,0.00,WSDL version 420,2013-09-16 11:51:00,
2013-09-16 07:57:00,56.8,55.0,30.03,North,-999,-999.0,-999.0,94,0.00,,,0.00,WSDL version 420,2013-09-16 11:57:00,
2013-09-16 08:03:00,56.8,55.3,30.00,North,-999,-999.0,-999.0,94,0.00,,,0.00,WSDL version 420,2013-09-16 12:03:00,
2013-09-16 08:10:00,56.8,54.8,30.00,North,-999,-999.0,-999.0,93,0.00,,,0.00,WSDL version 420,2013-09-16 12:10:00,
2013-09-16 08:16:00,57.0,55.2,30.03,North,-999,-999.0,-999.0,94,0.00,,,0.00,WSDL version 420,2013-09-16 12:16:00,
2013-09-16 08:22:00,57.0,55.1,30.03,North,-999,-999.0,-999.0,93,0.00,,,0.00,WSDL version 420,2013-09-16 12:22:00,
2013-09-16 08:28:00,56.8,54.9,30.03,North,-999,-999.0,-999.0,93,0.00,,,0.00,WSDL version 420,2013-09-16 12:28:00,
2013-09-16 08:34:00,56.9,55.0,30.00,North,-999,-999.0,-999.0,93,0.00,,,0.00,WSDL version 420,2013-09-16 12:34:00,
2013-09-16 08:40:00,56.8,54.9,30.00,North,-999,-999.0,-999.0,93,0.00,,,0.00,WSDL version 420,2013-09-16 12:40:00,
2013-09-16 08:46:00,56.7,54.8,30.03,North,-999,-999.0,-999.0,93,0.00,,,0.00,WSDL version 420,2013-09-16 12:46:00,
2013-09-16 08:52:00,56.8,54.9,30.03,North,-999,-999.0,-999.0,93,0.00,,,0.00,WSDL version 420,2013-09-16 12:52:00,
2013-09-16 08:58:00,57.2,55.3,30.03,North,-999,-999.0,-999.0,93,0.00,,,0.00,WSDL version 420,2013-09-16 12:58:00,
2013-09-16 09:04:00,57.3,55.4,30.03,North,-999,-999.0,-999.0,93,0.00,,,0.00,WSDL version 420,2013-09-16 13:04:00,
2013-09-16 09:10:00,57.3,55.4,30.03,North,-999,-999.0,-999.0,93,0.00,,,0.00,WSDL version 420,2013-09-16 13:10:00,
2013-09-16 09:16:00,57.6,55.9,30.03,North,-999,-999.0,-999.0,93,0.00,,,0.00,WSDL version 420,2013-09-16 13:16:00,
2013-09-16 09:22:00,57.8,55.9,30.03,North,-999,-999.0,-999.0,93,0.00,,,0.00,WSDL version 420,2013-09-16 13:22:00,
2013-09-16 09:28:00,58.2,56.2,30.03,North,-999,-999.0,-999.0,93,0.00,,,0.00,WSDL version 420,2013-09-16 13:28:00,
2013-09-16 09:34:00,58.5,56.5,30.03,North,-999,-999.0,-999.0,93,0.00,,,0.00,WSDL version 420,2013-09-16 13:34:00,
2013-09-16 09:40:00,58.5,56.2,30.03,North,-999,-999.0,-999.0,92,0.00,,,0.00,WSDL version 420,2013-09-16 13:40:00,
2013-09-16 09:46:00,58.8,56.5,30.03,North,-999,-999.0,-999.0,91,0.00,,,0.00,WSDL version 420,2013-09-16 13:46:00,
2013-09-16 09:52:00,58.8,56.2,30.03,North,-999,-999.0,-999.0,91,0.00,,,0.00,WSDL version 420,2013-09-16 13:52:00,
2013-09-16 09:58:00,59.0,56.4,30.03,North,-999,-999.0,-999.0,91,0.00,,,0.00,WSDL version 420,2013-09-16 13:58:00,
2013-09-16 10:04:00,59.2,56.3,30.03,North,-999,-999.0,-999.0,90,0.00,,,0.00,WSDL version 420,2013-09-16 14:04:00,
2013-09-16 10:10:00,59.4,56.4,30.03,North,-999,-999.0,-999.0,90,0.00,,,0.00,WSDL version 420,2013-09-16 14:10:00,
2013-09-16 10:16:00,59.5,56.3,30.06,North,-999,-999.0,-999.0,89,0.00,,,0.00,WSDL version 420,2013-09-16 14:16:00,
2013-09-16 10:22:00,59.7,56.4,30.06,North,-999,-999.0,-999.0,89,0.00,,,0.00,WSDL version 420,2013-09-16 14:22:00,
2013-09-16 10:28:00,59.7,56.0,30.06,North,-999,-999.0,-999.0,87,0.00,,,0.00,WSDL version 420,2013-09-16 14:28:00,
2013-09-16 10:34:00,59.9,56.1,30.03,North,-999,-999.0,-999.0,87,0.00,,,0.00,WSDL version 420,2013-09-16 14:34:00,
2013-09-16 10:40:00,60.3,56.3,30.03,North,-999,-999.0,-999.0,87,0.00,,,0.00,WSDL version 420,2013-09-16 14:40:00,
2013-09-16 10:46:00,60.6,56.4,30.03,North,-999,-999.0,-999.0,86,0.00,,,0.00,WSDL version 420,2013-09-16 14:46:00,
2013-09-16 10:52:00,61.0,56.0,30.03,North,-999,-999.0,-999.0,83,0.00,,,0.00,WSDL version 420,2013-09-16 14:52:00,
2013-09-16 10:59:00,61.0,56.0,30.03,North,-999,-999.0,-999.0,83,0.00,,,0.00,WSDL version 420,2013-09-16 14:59:00,
2013-09-16 11:05:00,61.3,56.0,30.03,North,-999,-999.0,-999.0,82,0.00,,,0.00,WSDL version 420,2013-09-16 15:05:00,
2013-09-16 11:11:00,61.8,55.6,30.03,North,-999,-999.0,-999.0,80,0.00,,,0.00,WSDL version 420,2013-09-16 15:11:00,
2013-09-16 11:17:00,61.9,55.8,30.03,North,-999,-999.0,-999.0,81,0.00,,,0.00,WSDL version 420,2013-09-16 15:17:00,
2013-09-16 11:23:00,62.5,56.0,30.03,North,-999,-999.0,-999.0,79,0.00,,,0.00,WSDL version 420,2013-09-16 15:23:00,
2013-09-16 11:29:00,63.0,55.5,30.03,North,360,2.9,2.9,74,0.00,,,0.00,WSDL version 420,2013-09-16 15:29:00,
2013-09-16 11:35:00,64.2,56.0,30.03,North,360,2.9,2.9,73,0.00,,,0.00,WSDL version 420,2013-09-16 15:35:00,
2013-09-16 11:41:00,64.3,55.7,30.03,North,360,2.9,2.9,73,0.00,,,0.00,WSDL version 420,2013-09-16 15:41:00,
2013-09-16 11:47:00,64.6,55.7,30.03,North,-999,-999.0,-999.0,73,0.00,,,0.00,WSDL version 420,2013-09-16 15:47:00,
2013-09-16 11:53:00,65.8,56.6,30.03,North,-999,-999.0,-999.0,72,0.00,,,0.00,WSDL version 420,2013-09-16 15:53:00,
2013-09-16 11:59:00,66.4,57.1,30.03,North,-999,-999.0,-999.0,72,0.00,,,0.00,WSDL version 420,2013-09-16 15:59:00,
2013-09-16 12:05:00,66.7,56.6,30.03,South,180,1.6,1.6,70,0.00,,,0.00,WSDL version 420,2013-09-16 16:05:00,
2013-09-16 12:11:00,65.8,55.9,30.03,South,180,1.6,1.6,71,0.00,,,0.00,WSDL version 420,2013-09-16 16:11:00,
2013-09-16 12:17:00,66.1,55.1,30.03,South,180,4.3,4.3,64,0.00,,,0.00,WSDL version 420,2013-09-16 16:17:00,
2013-09-16 12:23:00,67.2,55.2,30.03,South,180,4.3,4.3,66,0.00,,,0.00,WSDL version 420,2013-09-16 16:23:00,
2013-09-16 12:29:00,66.7,55.0,30.03,SSE,158,2.9,4.3,65,0.00,,,0.00,WSDL version 420,2013-09-16 16:29:00,
2013-09-16 12:35:00,66.7,54.7,30.03,SSE,158,2.9,2.9,66,0.00,,,0.00,WSDL version 420,2013-09-16 16:35:00,
2013-09-16 12:41:00,66.4,54.4,30.03,North,-999,-999.0,-999.0,66,0.00,,,0.00,WSDL version 420,2013-09-16 16:41:00,
2013-09-16 12:47:00,66.4,55.3,30.03,North,-999,-999.0,-999.0,69,0.00,,,0.00,WSDL version 420,2013-09-16 16:47:00,
2013-09-16 12:53:00,65.5,53.9,30.03,North,-999,-999.0,-999.0,66,0.00,,,0.00,WSDL version 420,2013-09-16 16:53:00,
2013-09-16 12:59:00,66.4,54.7,30.03,North,-999,-999.0,-999.0,66,0.00,,,0.00,WSDL version 420,2013-09-16 16:59:00,
2013-09-16 13:05:00,67.2,55.3,30.03,North,-999,-999.0,-999.0,66,0.00,,,0.00,WSDL version 420,2013-09-16 17:05:00,
2013-09-16 13:11:00,67.8,54.4,30.03,North,-999,-999.0,-999.0,61,0.00,,,0.00,WSDL version 420,2013-09-16 17:11:00,
2013-09-16 13:17:00,67.4,54.4,30.03,North,-999,-999.0,-999.0,63,0.00,,,0.00,WSDL version 420,2013-09-16 17:17:00,
2013-09-16 13:23:00,68.1,54.0,30.03,North,-999,-999.0,-999.0,60,0.00,,,0.00,WSDL version 420,2013-09-16 17:23:00,
2013-09-16 13:29:00,67.9,53.7,30.03,South,180,2.9,2.9,61,0.00,,,0.00,WSDL version 420,2013-09-16 17:29:00,
2013-09-16 13:35:00,68.3,54.1,30.03,South,180,2.9,2.9,61,0.00,,,0.00,WSDL version 420,2013-09-16 17:35:00,
2013-09-16 13:41:00,69.1,54.4,30.03,South,180,2.9,2.9,59,0.00,,,0.00,WSDL version 420,2013-09-16 17:41:00,
2013-09-16 13:48:00,69.0,54.5,30.03,North,-999,-999.0,-999.0,60,0.00,,,0.00,WSDL version 420,2013-09-16 17:48:00,
2013-09-16 13:54:00,68.9,54.0,30.03,North,-999,-999.0,-999.0,59,0.00,,,0.00,WSDL version 420,2013-09-16 17:54:00,
2013-09-16 14:00:00,69.4,54.7,30.03,SW,225,1.3,1.3,60,0.00,,,0.00,WSDL version 420,2013-09-16 18:00:00,
2013-09-16 14:06:00,69.1,54.2,30.03,SW,225,1.3,1.3,59,0.00,,,0.00,WSDL version 420,2013-09-16 18:06:00,
2013-09-16 14:12:00,69.5,53.9,30.03,SW,225,1.3,1.3,58,0.00,,,0.00,WSDL version 420,2013-09-16 18:12:00,
2013-09-16 14:18:00,69.2,54.3,30.03,North,-999,-999.0,-999.0,59,0.00,,,0.00,WSDL version 420,2013-09-16 18:18:00,
2013-09-16 14:24:00,68.7,53.7,30.03,North,-999,-999.0,-999.0,59,0.00,,,0.00,WSDL version 420,2013-09-16 18:24:00,
2013-09-16 14:30:00,68.6,53.5,30.03,North,-999,-999.0,-999.0,59,0.00,,,0.00,WSDL version 420,2013-09-16 18:30:00,
2013-09-16 14:36:00,68.3,53.7,30.03,North,-999,-999.0,-999.0,60,0.00,,,0.00,WSDL version 420,2013-09-16 18:36:00,
2013-09-16 14:42:00,68.0,54.2,30.03,North,-999,-999.0,-999.0,61,0.00,,,0.00,WSDL version 420,2013-09-16 18:42:00,
2013-09-16 14:48:00,67.4,53.6,30.03,North,-999,-999.0,-999.0,61,0.00,,,0.00,WSDL version 420,2013-09-16 18:48:00,
2013-09-16 14:54:00,66.9,53.2,30.03,North,-999,-999.0,-999.0,62,0.00,,,0.00,WSDL version 420,2013-09-16 18:54:00,
2013-09-16 15:00:00,66.5,52.9,30.03,North,-999,-999.0,-999.0,62,0.00,,,0.00,WSDL version 420,2013-09-16 19:00:00,
2013-09-16 15:06:00,66.4,53.2,30.03,North,-999,-999.0,-999.0,63,0.00,,,0.00,WSDL version 420,2013-09-16 19:06:00,
2013-09-16 15:12:00,66.2,53.2,30.03,North,-999,-999.0,-999.0,63,0.00,,,0.00,WSDL version 420,2013-09-16 19:12:00,
2013-09-16 15:18:00,66.4,53.4,30.03,North,-999,-999.0,-999.0,62,0.00,,,0.00,WSDL version 420,2013-09-16 19:18:00,
2013-09-16 15:24:00,66.1,52.8,30.03,North,-999,-999.0,-999.0,63,0.00,,,0.00,WSDL version 420,2013-09-16 19:24:00,
2013-09-16 15:30:00,65.9,53.3,30.03,North,-999,-999.0,-999.0,63,0.00,,,0.00,WSDL version 420,2013-09-16 19:30:00,
2013-09-16 15:36:00,66.0,53.5,30.03,North,-999,-999.0,-999.0,64,0.00,,,0.00,WSDL version 420,2013-09-16 19:36:00,
2013-09-16 15:42:00,65.8,53.6,30.03,North,-999,-999.0,-999.0,65,0.00,,,0.00,WSDL version 420,2013-09-16 19:42:00,
2013-09-16 15:48:00,66.0,53.9,30.03,North,-999,-999.0,-999.0,65,0.00,,,0.00,WSDL version 420,2013-09-16 19:48:00,
2013-09-16 15:54:00,65.9,53.7,30.03,North,-999,-999.0,-999.0,65,0.00,,,0.00,WSDL version 420,2013-09-16 19:54:00,
2013-09-16 16:00:00,65.8,54.0,30.03,North,-999,-999.0,-999.0,66,0.00,,,0.00,WSDL version 420,2013-09-16 20:00:00,
2013-09-16 16:06:00,65.8,54.1,30.03,North,-999,-999.0,-999.0,66,0.00,,,0.00,WSDL version 420,2013-09-16 20:06:00,
2013-09-16 16:12:00,65.6,53.9,30.03,North,-999,-999.0,-999.0,65,0.00,,,0.00,WSDL version 420,2013-09-16 20:12:00,
2013-09-16 16:18:00,65.3,53.2,30.03,North,-999,-999.0,-999.0,65,0.00,,,0.00,WSDL version 420,2013-09-16 20:18:00,
2013-09-16 16:24:00,65.2,53.1,30.03,North,-999,-999.0,-999.0,65,0.00,,,0.00,WSDL version 420,2013-09-16 20:24:00,
2013-09-16 16:31:00,65.1,53.1,30.03,North,-999,-999.0,-999.0,65,0.00,,,0.00,WSDL version 420,2013-09-16 20:31:00,
2013-09-16 16:37:00,65.0,53.2,30.03,West,270,0.0,0.0,66,0.00,,,0.00,WSDL version 420,2013-09-16 20:37:00,
2013-09-16 16:43:00,65.0,53.4,30.03,West,270,0.0,0.0,66,0.00,,,0.00,WSDL version 420,2013-09-16 20:43:00,
2013-09-16 16:49:00,64.9,53.6,30.03,North,0,0.0,0.0,66,0.00,,,0.00,WSDL version 420,2013-09-16 20:49:00,
2013-09-16 16:55:00,64.9,53.7,30.03,North,-999,-999.0,-999.0,67,0.00,,,0.00,WSDL version 420,2013-09-16 20:55:00,
2013-09-16 17:01:00,64.8,53.6,30.06,North,-999,-999.0,-999.0,67,0.00,,,0.00,WSDL version 420,2013-09-16 21:01:00,
2013-09-16 17:07:00,64.6,53.2,30.06,North,-999,-999.0,-999.0,67,0.00,,,0.00,WSDL version 420,2013-09-16 21:07:00,
2013-09-16 17:13:00,64.2,53.2,30.06,North,-999,-999.0,-999.0,67,0.00,,,0.00,WSDL version 420,2013-09-16 21:13:00,
2013-09-16 17:19:00,64.3,53.3,30.06,North,-999,-999.0,-999.0,68,0.00,,,0.00,WSDL version 420,2013-09-16 21:19:00,
2013-09-16 17:25:00,64.2,53.3,30.06,North,-999,-999.0,-999.0,68,0.00,,,0.00,WSDL version 420,2013-09-16 21:25:00,
2013-09-16 17:31:00,64.0,53.2,30.06,North,-999,-999.0,-999.0,68,0.00,,,0.00,WSDL version 420,2013-09-16 21:31:00,
2013-09-16 17:37:00,63.7,52.6,30.06,North,-999,-999.0,-999.0,67,0.00,,,0.00,WSDL version 420,2013-09-16 21:37:00,
2013-09-16 17:43:00,63.4,52.5,30.06,North,-999,-999.0,-999.0,68,0.00,,,0.00,WSDL version 420,2013-09-16 21:43:00,
2013-09-16 17:49:00,63.3,52.6,30.06,North,-999,-999.0,-999.0,68,0.00,,,0.00,WSDL version 420,2013-09-16 21:49:00,
2013-09-16 17:55:00,63.0,52.4,30.06,North,-999,-999.0,-999.0,69,0.00,,,0.00,WSDL version 420,2013-09-16 21:55:00,
2013-09-16 18:01:00,62.7,52.7,30.06,North,-999,-999.0,-999.0,70,0.00,,,0.00,WSDL version 420,2013-09-16 22:01:00,
2013-09-16 18:07:00,62.6,52.7,30.06,North,-999,-999.0,-999.0,70,0.00,,,0.00,WSDL version 420,2013-09-16 22:07:00,
2013-09-16 18:13:00,62.4,52.7,30.06,North,-999,-999.0,-999.0,70,0.00,,,0.00,WSDL version 420,2013-09-16 22:13:00,
2013-09-16 18:19:00,62.2,52.7,30.06,North,-999,-999.0,-999.0,71,0.00,,,0.00,WSDL version 420,2013-09-16 22:19:00,
2013-09-16 18:25:00,61.8,52.3,30.06,North,-999,-999.0,-999.0,71,0.00,,,0.00,WSDL version 420,2013-09-16 22:25:00,
2013-09-16 18:31:00,61.5,52.0,30.06,North,-999,-999.0,-999.0,71,0.00,,,0.00,WSDL version 420,2013-09-16 22:31:00,
2013-09-16 18:37:00,61.4,52.2,30.06,North,-999,-999.0,-999.0,72,0.00,,,0.00,WSDL version 420,2013-09-16 22:37:00,
2013-09-16 18:43:00,60.7,52.2,30.06,North,-999,-999.0,-999.0,74,0.00,,,0.00,WSDL version 420,2013-09-16 22:43:00,
2013-09-16 18:49:00,60.6,52.2,30.09,North,-999,-999.0,-999.0,74,0.00,,,0.00,WSDL version 420,2013-09-16 22:49:00,
2013-09-16 18:55:00,59.7,52.0,30.09,North,-999,-999.0,-999.0,76,0.00,,,0.00,WSDL version 420,2013-09-16 22:55:00,
2013-09-16 19:01:00,59.3,51.9,30.09,North,-999,-999.0,-999.0,76,0.00,,,0.00,WSDL version 420,2013-09-16 23:01:00,
2013-09-16 19:07:00,59.2,51.8,30.09,North,-999,-999.0,-999.0,76,0.00,,,0.00,WSDL version 420,2013-09-16 23:07:00,
2013-09-16 19:13:00,59.2,52.1,30.09,North,-999,-999.0,-999.0,78,0.00,,,0.00,WSDL version 420,2013-09-16 23:13:00,
2013-09-16 19:20:00,58.9,52.2,30.09,North,-999,-999.0,-999.0,78,0.00,,,0.00,WSDL version 420,2013-09-16 23:20:00,
2013-09-16 19:26:00,58.7,52.2,30.09,North,-999,-999.0,-999.0,79,0.00,,,0.00,WSDL version 420,2013-09-16 23:26:00,
2013-09-16 19:32:00,58.6,52.1,30.09,North,-999,-999.0,-999.0,79,0.00,,,0.00,WSDL version 420,2013-09-16 23:32:00,
2013-09-16 19:38:00,58.2,52.0,30.09,North,-999,-999.0,-999.0,80,0.00,,,0.00,WSDL version 420,2013-09-16 23:38:00,
2013-09-16 19:44:00,58.3,52.1,30.09,North,-999,-999.0,-999.0,80,0.00,,,0.00,WSDL version 420,2013-09-16 23:44:00,
2013-09-16 19:50:00,58.3,51.9,30.12,North,-999,-999.0,-999.0,79,0.00,,,0.00,WSDL version 420,2013-09-16 23:50:00,
2013-09-16 19:56:00,58.8,52.3,30.12,North,-999,-999.0,-999.0,79,0.00,,,0.00,WSDL version 420,2013-09-16 23:56:00,
2013-09-16 20:02:00,58.8,52.0,30.12,North,-999,-999.0,-999.0,78,0.00,,,0.00,WSDL version 420,2013-09-17 00:02:00,
2013-09-16 20:08:00,58.8,52.0,30.12,North,-999,-999.0,-999.0,78,0.00,,,0.00,WSDL version 420,2013-09-17 00:08:00,
2013-09-16 20:14:00,58.9,51.8,30.12,North,-999,-999.0,-999.0,77,0.00,,,0.00,WSDL version 420,2013-09-17 00:14:00,
2013-09-16 20:20:00,58.9,51.8,30.12,North,-999,-999.0,-999.0,78,0.00,,,0.00,WSDL version 420,2013-09-17 00:20:00,
2013-09-16 20:26:00,58.9,51.8,30.12,North,-999,-999.0,-999.0,77,0.00,,,0.00,WSDL version 420,2013-09-17 00:26:00,
2013-09-16 20:32:00,58.8,51.5,30.15,North,-999,-999.0,-999.0,76,0.00,,,0.00,WSDL version 420,2013-09-17 00:32:00,
2013-09-16 20:38:00,58.5,51.0,30.15,North,-999,-999.0,-999.0,76,0.00,,,0.00,WSDL version 420,2013-09-17 00:38:00,
2013-09-16 20:44:00,58.3,50.5,30.15,North,-999,-999.0,-999.0,75,0.00,,,0.00,WSDL version 420,2013-09-17 00:44:00,
2013-09-16 20:50:00,58.1,50.1,30.15,North,-999,-999.0,-999.0,74,0.00,,,0.00,WSDL version 420,2013-09-17 00:50:00,
2013-09-16 20:56:00,58.0,49.8,30.15,North,-999,-999.0,-999.0,74,0.00,,,0.00,WSDL version 420,2013-09-17 00:56:00,
2013-09-16 21:02:00,57.9,49.6,30.15,North,-999,-999.0,-999.0,74,0.00,,,0.00,WSDL version 420,2013-09-17 01:02:00,
2013-09-16 21:08:00,57.4,49.2,30.15,North,-999,-999.0,-999.0,74,0.00,,,0.00,WSDL version 420,2013-09-17 01:08:00,
2013-09-16 21:14:00,57.2,48.9,30.15,North,-999,-999.0,-999.0,74,0.00,,,0.00,WSDL version 420,2013-09-17 01:14:00,
2013-09-16 21:20:00,57.2,48.9,30.15,North,-999,-999.0,-999.0,73,0.00,,,0.00,WSDL version 420,2013-09-17 01:20:00,
2013-09-16 21:26:00,56.8,48.3,30.15,North,-999,-999.0,-999.0,73,0.00,,,0.00,WSDL version 420,2013-09-17 01:26:00,
2013-09-16 21:32:00,56.7,48.1,30.18,North,-999,-999.0,-999.0,73,0.00,,,0.00,WSDL version 420,2013-09-17 01:32:00,
2013-09-16 21:38:00,56.4,47.5,30.18,North,-999,-999.0,-999.0,72,0.00,,,0.00,WSDL version 420,2013-09-17 01:38:00,
2013-09-16 21:44:00,56.1,47.2,30.18,North,-999,-999.0,-999.0,72,0.00,,,0.00,WSDL version 420,2013-09-17 01:44:00,
2013-09-16 21:50:00,55.9,47.1,30.18,North,-999,-999.0,-999.0,72,0.00,,,0.00,WSDL version 420,2013-09-17 01:50:00,
2013-09-16 21:56:00,55.8,46.9,30.18,North,-999,-999.0,-999.0,72,0.00,,,0.00,WSDL version 420,2013-09-17 01:56:00,
2013-09-16 22:02:00,55.6,47.1,30.18,North,-999,-999.0,-999.0,73,0.00,,,0.00,WSDL version 420,2013-09-17 02:02:00,
2013-09-16 22:09:00,55.3,46.8,30.18,North,-999,-999.0,-999.0,73,0.00,,,0.00,WSDL version 420,2013-09-17 02:09:00,
2013-09-16 22:15:00,55.2,47.1,30.18,North,-999,-999.0,-999.0,74,0.00,,,0.00,WSDL version 420,2013-09-17 02:15:00,
2013-09-16 22:21:00,54.9,46.7,30.21,North,-999,-999.0,-999.0,74,0.00,,,0.00,WSDL version 420,2013-09-17 02:21:00,
2013-09-16 22:27:00,54.4,46.7,30.21,North,-999,-999.0,-999.0,75,0.00,,,0.00,WSDL version 420,2013-09-17 02:27:00,
2013-09-16 22:33:00,54.3,46.3,30.18,North,-999,-999.0,-999.0,74,0.00,,,0.00,WSDL version 420,2013-09-17 02:33:00,
2013-09-16 22:39:00,54.1,46.0,30.18,North,-999,-999.0,-999.0,74,0.00,,,0.00,WSDL version 420,2013-09-17 02:39:00,
2013-09-16 22:45:00,53.9,45.7,30.18,North,-999,-999.0,-999.0,74,0.00,,,0.00,WSDL version 420,2013-09-17 02:45:00,
2013-09-16 22:51:00,53.7,45.1,30.21,North,-999,-999.0,-999.0,73,0.00,,,0.00,WSDL version 420,2013-09-17 02:51:00,
2013-09-16 22:57:00,53.5,44.9,30.21,North,-999,-999.0,-999.0,73,0.00,,,0.00,WSDL version 420,2013-09-17 02:57:00,
2013-09-16 23:03:00,53.2,44.6,30.21,North,-999,-999.0,-999.0,72,0.00,,,0.00,WSDL version 420,2013-09-17 03:03:00,
2013-09-16 23:09:00,53.1,44.2,30.21,North,-999,-999.0,-999.0,71,0.00,,,0.00,WSDL version 420,2013-09-17 03:09:00,
2013-09-16 23:15:00,52.9,43.8,30.21,North,-999,-999.0,-999.0,71,0.00,,,0.00,WSDL version 420,2013-09-17 03:15:00,
2013-09-16 23:21:00,52.6,43.5,30.21,North,-999,-999.0,-999.0,71,0.00,,,0.00,WSDL version 420,2013-09-17 03:21:00,
2013-09-16 23:27:00,52.5,43.3,30.21,North,-999,-999.0,-999.0,71,0.00,,,0.00,WSDL version 420,2013-09-17 03:27:00,
2013-09-16 23:33:00,52.3,42.7,30.21,North,-999,-999.0,-999.0,70,0.00,,,0.00,WSDL version 420,2013-09-17 03:33:00,
2013-09-16 23:39:00,52.1,42.6,30.21,North,-999,-999.0,-999.0,70,0.00,,,0.00,WSDL version 420,2013-09-17 03:39:00,
2013-09-16 23:45:00,51.8,42.2,30.21,North,-999,-999.0,-999.0,69,0.00,,,0.00,WSDL version 420,2013-09-17 03:45:00,
2013-09-16 23:51:00,51.7,41.9,30.21,North,-999,-999.0,-999.0,69,0.00,,,0.00,WSDL version 420,2013-09-17 03:51:00,
2013-09-16 23:57:00,51.6,41.6,30.21,North,-999,-999.0,-999.0,69,0.00,,,0.00,WSDL version 420,2013-09-17 03:57:00,